Ibiza, Spain

6:04 AM CEST en Septiembre 23, 2017 (GMT +0200)
Ibiza

Tiempo Historia de LEIB - Septiembre, 2017

Change the Weather History Date:

Jueves, Septiembre 14, 2017

  Actual Average Record
Temperature  
Temperatura media 76 ° F -  
Temperatura máxima 79 ° F 76 ° F 86 ° F (2001)
Temperatura mínima 72 ° F 63 ° F 62 ° F (1996)
Cooling Degree Days 10    
Growing Degree Days 26 (Base 50)    
Moisture  
Punto de rocío 70 ° F    
Average Humidity 81    
Maximum Humidity 89    
Minimum Humidity 72    
Precipitación  
Precipitación 0.00 pul 0.07 pul - ()
Presión al nivel del mar  
Presión al nivel del mar 30.02 pul    
Viento  
Velocidad del viento 5 mph ()    
Velocidad máxima del viento 14 mph    
Max Gust Speed -    
Visibilidad 6.5 Millas    
Eventos      
Averages and records for this station are not official NWS values.
T = Trace of Precipitation, MM = Missing Value Source: Averaged Metar Reports

Daily Weather History Graph

Daily Weather History Graph

Search for Another Location

Airport or City:

Trip Planner

Search our weather history database for the weather conditions in past years. The results will help you decide how hot, cold, wet, or windy it might be!

Date:

Astronomía

Sep. 14, 2017 Salida Puesta
Hora real 7:35 AM CEST 8:04 PM CEST
Crepúsculo civil 7:08 AM CEST 8:31 PM CEST
Crepúsculo náutico 6:36 AM CEST 9:02 PM CEST
Crepúsculo astronómico 6:04 AM CEST 9:34 PM CEST
Luna 1:20 AM CEST (9/14) 4:04 PM CEST (9/14)
Horas de luz 13h 22m
Horas de luz
12h 29m
Cuarto menguante, 37% of the Moon is Illuminated
Sep 14
Cuarto menguante
Sep 20
Nueva
Sep 28
Cuarto creciente
Oct 5
Luna llena
Oct 12
Cuarto menguante

Hourly Weather History & Observations

Hora (CEST) Temp. Punto de rocío Humedad Presión Visibilidad Wind Dir Velocidad del viento Velocidad de ráfagas Precip Eventos Condiciones
12:00 AM 74 ° F 69 ° F 78% 30.14 pul - SSE 3.5 mph - -  
12:00 AM 75.2 ° F 68.0 ° F 78% 30.12 pul 6.2 mi Variable 2.3 mph - N/A   Muy nublado
12:30 AM 75.2 ° F 69.8 ° F 83% 30.12 pul 6.2 mi SSE 6.9 mph - N/A   Nubes dispersas
1:00 AM 74 ° F 69 ° F 79% 30.13 pul - SSO 2.3 mph - -  
1:00 AM 75.2 ° F 68.0 ° F 78% 30.12 pul 6.2 mi Sur 4.6 mph - N/A   Nubes dispersas
1:30 AM 75.2 ° F 69.8 ° F 83% 30.12 pul 6.2 mi Sur 5.8 mph - N/A   Nubes dispersas
2:00 AM 73 ° F 69 ° F 82% 30.11 pul 9 mi Sin viento Sin viento - -   Parcialmente nublado
2:00 AM 73.4 ° F 68.0 ° F 83% 30.09 pul 6.2 mi Variable 1.2 mph - N/A   Nubes dispersas
2:30 AM 73.4 ° F 68.0 ° F 83% 30.09 pul 6.2 mi Sin viento Sin viento - N/A   Nubes dispersas
3:00 AM 72 ° F 69 ° F 85% 30.09 pul - SE 1.2 mph - -  
3:00 AM 73.4 ° F 68.0 ° F 83% 30.09 pul 6.2 mi Variable 2.3 mph - N/A   Nubes dispersas
3:30 AM 73.4 ° F 68.0 ° F 83% 30.06 pul 6.2 mi Variable 2.3 mph - N/A   Muy nublado
4:00 AM 73 ° F 69 ° F 83% 30.08 pul - SSE 3.5 mph - -  
4:00 AM 73.4 ° F 69.8 ° F 88% 30.06 pul 6.2 mi Variable 2.3 mph - N/A   Muy nublado
4:30 AM 73.4 ° F 68.0 ° F 83% 30.06 pul 6.2 mi Sur 3.5 mph - N/A   Muy nublado
5:00 AM 72 ° F 69 ° F 85% 30.07 pul 9 mi Sur 3.5 mph - -   Muy nublado
5:00 AM 73.4 ° F 68.0 ° F 83% 30.06 pul 6.2 mi Variable 2.3 mph - N/A   Muy nublado
5:30 AM 73.4 ° F 68.0 ° F 83% 30.06 pul 6.2 mi Sur 4.6 mph - N/A   Muy nublado
6:00 AM 72 ° F 69 ° F 85% 30.06 pul - SSE 4.6 mph - -  
6:00 AM 73.4 ° F 68.0 ° F 83% 30.04 pul 6.2 mi SSE 4.6 mph - N/A   Muy nublado
7:00 AM 72 ° F 68 ° F 85% 30.05 pul - Sur 5.8 mph - -  
7:00 AM 73.4 ° F 68.0 ° F 83% 30.04 pul 6.2 mi Sur 4.6 mph - N/A   Nubes dispersas
7:30 AM 73.4 ° F 68.0 ° F 83% 30.04 pul 6.2 mi Sur 4.6 mph - N/A   Muy nublado
8:00 AM 73 ° F 69 ° F 82% 30.05 pul 2 mi Sur 5.8 mph - -   Muy nublado
8:00 AM 73.4 ° F 68.0 ° F 83% 30.04 pul 6.2 mi Sur 4.6 mph - N/A   Muy nublado
8:30 AM 75.2 ° F 69.8 ° F 83% 30.04 pul 6.2 mi Sur 4.6 mph - N/A   Muy nublado
9:00 AM 75 ° F 69 ° F 77% 30.04 pul - Sur 6.9 mph - -  
9:00 AM 75.2 ° F 69.8 ° F 83% 30.04 pul 6.2 mi Sur 6.9 mph - N/A   Muy nublado
9:30 AM 75.2 ° F 69.8 ° F 83% 30.04 pul 6.2 mi SSO 8.1 mph - N/A   Muy nublado
10:00 AM 77.0 ° F 69.8 ° F 78% 30.04 pul 6.2 mi SSO 9.2 mph - N/A   Nubes dispersas
10:30 AM 77.0 ° F 69.8 ° F 78% 30.04 pul 6.2 mi SO 9.2 mph - N/A   Nubes dispersas
11:00 AM 78 ° F 71 ° F 73% 30.05 pul 11 mi SSO 10.4 mph - -   Parcialmente nublado
11:00 AM 77.0 ° F 69.8 ° F 78% 30.04 pul 6.2 mi SSO 9.2 mph - N/A   Nubes dispersas
11:30 AM 78.8 ° F 71.6 ° F 78% 30.04 pul 6.2 mi SSO 11.5 mph - N/A   Nubes dispersas
12:00 PM 79 ° F 72 ° F 73% 30.04 pul - SSO 12.7 mph - -  
12:00 PM 78.8 ° F 71.6 ° F 78% 30.04 pul 6.2 mi SSO 11.5 mph - N/A   Nubes dispersas
12:30 PM 78.8 ° F 71.6 ° F 78% 30.04 pul 6.2 mi SSO 12.7 mph - N/A   Nubes dispersas
1:00 PM 79 ° F 71 ° F 72% 30.03 pul - SSO 13.8 mph - -  
1:00 PM 78.8 ° F 71.6 ° F 78% 30.01 pul 6.2 mi SSO 12.7 mph - N/A   Nubes dispersas
1:30 PM 78.8 ° F 71.6 ° F 78% 30.01 pul 6.2 mi SO 11.5 mph - N/A   Nubes dispersas
2:00 PM 78.8 ° F 71.6 ° F 78% 30.01 pul 6.2 mi SO 10.4 mph - N/A   Nubes dispersas
2:30 PM 78.8 ° F 71.6 ° F 78% 29.98 pul 6.2 mi SSO 10.4 mph - N/A   Nubes dispersas
3:00 PM 79 ° F 71 ° F 72% 29.99 pul - SO 11.5 mph - -  
3:00 PM 78.8 ° F 69.8 ° F 74% 29.98 pul 6.2 mi SO 11.5 mph - N/A   Nubes dispersas
3:30 PM 78.8 ° F 71.6 ° F 78% 29.98 pul 6.2 mi SSO 10.4 mph - N/A   Parcialmente nublado
4:00 PM 79 ° F 72 ° F 73% 29.98 pul - SSO 10.4 mph - -  
4:00 PM 78.8 ° F 71.6 ° F 78% 29.98 pul 6.2 mi SSO 9.2 mph - N/A   Parcialmente nublado
4:30 PM 78.8 ° F 71.6 ° F 78% 29.95 pul 6.2 mi SSO 9.2 mph - N/A   Parcialmente nublado
5:00 PM 78 ° F 71 ° F 75% 29.97 pul 12 mi SSO 9.2 mph - -   Nubes dispersas
5:00 PM 78.8 ° F 71.6 ° F 78% 29.95 pul 6.2 mi SSO 8.1 mph - N/A   Parcialmente nublado
5:30 PM 78.8 ° F 71.6 ° F 78% 29.95 pul 6.2 mi SO 9.2 mph - N/A   Parcialmente nublado
6:00 PM 78 ° F 71 ° F 74% 29.96 pul - SSO 9.2 mph - -  
6:00 PM 77.0 ° F 71.6 ° F 83% 29.95 pul 6.2 mi SSO 8.1 mph - N/A   Parcialmente nublado
6:30 PM 77.0 ° F 71.6 ° F 83% 29.95 pul 6.2 mi SSO 8.1 mph - N/A   Parcialmente nublado
7:00 PM 77 ° F 71 ° F 77% 29.96 pul - SSO 5.8 mph - -  
7:00 PM 77.0 ° F 71.6 ° F 83% 29.95 pul 6.2 mi SSO 4.6 mph - N/A   Parcialmente nublado
7:30 PM 77.0 ° F 71.6 ° F 83% 29.95 pul 6.2 mi SO 4.6 mph - N/A   Parcialmente nublado
8:00 PM 75.2 ° F 71.6 ° F 89% 29.95 pul 6.2 mi Sin viento Sin viento - N/A   Parcialmente nublado
8:30 PM 75.2 ° F 69.8 ° F 83% 29.95 pul 6.2 mi Sin viento Sin viento - N/A   Parcialmente nublado
9:00 PM 74 ° F 69 ° F 80% 29.96 pul - Sin viento Sin viento - -  
9:00 PM 75.2 ° F 69.8 ° F 83% 29.95 pul 6.2 mi Sin viento Sin viento - N/A   Parcialmente nublado
9:30 PM 73.4 ° F 69.8 ° F 88% 29.98 pul 6.2 mi Sin viento Sin viento - N/A   Parcialmente nublado
10:00 PM 72 ° F 69 ° F 88% 29.98 pul - Norte 2.3 mph - -  
10:00 PM 73.4 ° F 69.8 ° F 88% 29.98 pul 6.2 mi Variable 2.3 mph - N/A   Parcialmente nublado
10:30 PM 73.4 ° F 69.8 ° F 88% 29.98 pul 6.2 mi Variable 1.2 mph - N/A   Muy nublado
11:00 PM 73 ° F 69 ° F 84% 29.99 pul 9 mi NE 2.3 mph - -   Muy nublado
11:00 PM 75.2 ° F 69.8 ° F 83% 29.98 pul 6.2 mi Variable 2.3 mph - N/A   Muy nublado
11:30 PM 73.4 ° F 69.8 ° F 88% 29.98 pul 6.2 mi Norte 3.5 mph - N/A   Muy nublado